Flag for Switzerland Weather past 2 weeks in Sion, Valais, Switzerland

Now
31 °F

Chilly.


Feels Like: 27 °F
Forecast: 13 / 35 °F
Wind: 3 mph from Northeast

Location: Sion

Current Time: Feb 1, 2015 at 11:55:04 PM

Latest Report: Feb 1, 2015 at 11:00 PM


Visibility: N/A

Pressure: 29.65 "Hg

Humidity: 78%

Dew point: 25 °F

Location of SionLocation

Historic Weather in Sion — Graph

°F

Sion temperature yesterday

Maximum temperature yesterday: 34 °F (at 2:00 PM)
Minimum temperature yesterday: 23 °F (at 8:00 AM)
Average temperature yesterday: 30 °F

Past Weeks' High & Low Weather Summary

 TemperatureHumidityPressure
High45 °F (Jan 20, 2:00 PM)100% (Jan 31, 8:00 AM)30.45 "Hg (Jan 31, 8:00 AM)
Low23 °F (Jan 31, 8:00 AM)44% (Jan 25, 3:00 PM)29.03 "Hg (Jan 30, 3:00 AM)
Average33 °F78%29.89 "Hg
* Reported Jan 17 10:00 PM — Feb 1 10:00 PM, Sion, Weather by CustomWeather, © 2014

Note: Actual official high and low records may vary slightly from our data, if they occured in-between our weather recording intervals... More about our weather records

Advertising

Sion weather history for previous 24 hours

 ConditionsComfort  
Time TempWeatherWind HumidityBarometerVisibility
10:00 PM
Feb 1
31 °FPassing clouds.2 mph78%29.65 "Hg9 mi
9:00 PM31 °FChilly.3 mph72%29.62 "HgN/A
8:00 PM32 °FChilly.6 mph76%29.59 "HgN/A
7:00 PM32 °FOvercast.5 mph79%29.57 "Hg9 mi
6:00 PM32 °FChilly.1 mph89%29.55 "HgN/A
5:00 PM34 °FChilly.5 mph85%29.50 "HgN/A
4:00 PM34 °FSnow flurries. Overcast.1 mph85%29.47 "Hg6 mi
3:00 PM34 °FChilly.3 mph90%29.44 "HgN/A
2:00 PM33 °FChilly.3 mph93%29.44 "HgN/A
1:00 PM33 °FSnow flurries. Low clouds.1 mph91%29.44 "Hg6 mi
12:00 PM33 °FChilly.2 mph92%29.44 "HgN/A
11:00 AM33 °FChilly.2 mph86%29.41 "HgN/A
10:00 AM31 °FSnow. Low clouds.2 mph93%29.38 "Hg6 mi
9:00 AM30 °FChilly.1 mph96%29.38 "HgN/A
8:00 AM30 °FChilly.1 mph96%29.35 "HgN/A
7:00 AM30 °FOvercast.1 mph95%29.35 "Hg9 mi
6:00 AM30 °FChilly.1 mph94%29.32 "HgN/A
5:00 AM30 °FChilly.1 mph94%29.32 "HgN/A
4:00 AM30 °FOvercast.1 mph95%29.32 "Hg47 mi
3:00 AM31 °FChilly.3 mph94%29.29 "HgN/A
2:00 AM31 °FChilly.1 mph95%29.32 "HgN/A
1:00 AM30 °FLight snow. Low clouds.1 mph96%29.32 "Hg3 mi
12:00 AM31 °FChilly.2 mph96%29.29 "HgN/A
11:00 PM
Jan 31
30 °FChilly.No wind97%29.29 "HgN/A
Weather by CustomWeather, © 2014

See weather overviewHow to use our weather pages